TimeCST,TemperatureF,Dew PointF,Humidity,Sea Level PressureIn,VisibilityMPH,Wind Direction,Wind SpeedMPH,Gust SpeedMPH,PrecipitationIn,Events,Conditions,WindDirDegrees,DateUTC
12:50 AM,46.4,46.4,100,29.93,10.0,West,5.8,-,N/A,,Overcast,280,2012-11-07 06:50:00
12:52 AM,46.4,46.4,100,29.93,10.0,West,6.9,-,N/A,,Overcast,280,2012-11-07 06:52:00
12:55 AM,45.5,45.5,100,29.93,10.0,West,6.9,-,N/A,,Overcast,280,2012-11-07 06:55:00
12:59 AM,44.6,44.6,100,29.93,10.0,WNW,9.2,-,N/A,,Overcast,290,2012-11-07 06:59:00
1:06 AM,44.6,44.6,100,29.93,10.0,WNW,10.4,-,N/A,,Overcast,290,2012-11-07 07:06:00
1:55 AM,45.0,45.0,100,29.93,10.0,WNW,6.9,-,N/A,,Overcast,300,2012-11-07 07:55:00
2:08 AM,44.6,44.6,100,29.93,10.0,WNW,6.9,-,N/A,,Overcast,300,2012-11-07 08:08:00
2:37 AM,44.6,44.6,100,29.93,10.0,West,5.8,-,N/A,,Overcast,280,2012-11-07 08:37:00
2:55 AM,44.4,44.4,100,29.93,9.0,WNW,3.5,-,N/A,,Overcast,290,2012-11-07 08:55:00
3:02 AM,44.6,44.6,100,29.92,9.0,WNW,3.5,-,N/A,,Overcast,290,2012-11-07 09:02:00
3:04 AM,44.6,44.6,100,29.92,9.0,West,4.6,-,N/A,,Overcast,280,2012-11-07 09:04:00
3:37 AM,42.8,42.8,100,29.93,10.0,West,3.5,-,N/A,,Scattered Clouds,280,2012-11-07 09:37:00
3:55 AM,42.1,42.1,100,29.94,10.0,West,5.8,-,N/A,,Scattered Clouds,270,2012-11-07 09:55:00
4:01 AM,42.8,42.8,100,29.94,10.0,West,4.6,-,N/A,,Mostly Cloudy,270,2012-11-07 10:01:00
4:08 AM,42.8,42.8,100,29.94,9.0,West,4.6,-,N/A,,Scattered Clouds,270,2012-11-07 10:08:00
4:10 AM,42.8,42.8,100,29.94,9.0,West,4.6,-,N/A,,Scattered Clouds,270,2012-11-07 10:10:00
4:55 AM,39.9,39.9,100,29.94,6.0,West,4.6,-,N/A,,Clear,260,2012-11-07 10:55:00
5:39 AM,39.2,39.2,100,29.95,6.0,West,4.6,-,N/A,,Mostly Cloudy,260,2012-11-07 11:39:00
5:46 AM,39.2,39.2,100,29.95,6.0,West,3.5,-,N/A,,Mostly Cloudy,260,2012-11-07 11:46:00
5:51 AM,39.2,39.2,100,29.95,6.0,West,4.6,-,N/A,,Mostly Cloudy,270,2012-11-07 11:51:00
5:55 AM,39.7,39.7,100,29.95,7.0,West,4.6,-,N/A,,Mostly Cloudy,270,2012-11-07 11:55:00
6:16 AM,41.0,41.0,100,29.95,8.0,West,4.6,-,N/A,,Overcast,270,2012-11-07 12:16:00
6:55 AM,42.3,42.3,100,29.96,9.0,West,3.5,-,N/A,,Overcast,260,2012-11-07 12:55:00
7:55 AM,43.2,43.2,100,29.98,7.0,Calm,Calm,-,N/A,,Overcast,0,2012-11-07 13:55:00
7:58 AM,42.8,42.8,100,29.98,6.0,Calm,Calm,-,N/A,,Light Drizzle,0,2012-11-07 13:58:00
8:15 AM,42.8,42.8,100,29.98,5.0,WNW,3.5,-,N/A,,Overcast,300,2012-11-07 14:15:00
8:23 AM,42.8,42.8,100,29.98,5.0,WNW,3.5,-,N/A,,Light Drizzle,300,2012-11-07 14:23:00
8:28 AM,44.6,44.6,100,29.98,4.0,NW,3.5,-,N/A,,Light Drizzle,310,2012-11-07 14:28:00
8:32 AM,44.6,44.6,100,29.98,3.0,NW,3.5,-,N/A,,Light Drizzle,310,2012-11-07 14:32:00
8:43 AM,44.6,44.6,100,29.98,3.0,NW,3.5,-,N/A,,Light Drizzle,310,2012-11-07 14:43:00
8:44 AM,44.6,44.6,100,29.98,2.5,NW,3.5,-,N/A,,Light Drizzle,310,2012-11-07 14:44:00
8:51 AM,44.6,44.6,100,29.98,2.5,NW,5.8,-,N/A,,Light Drizzle,320,2012-11-07 14:51:00
8:52 AM,44.6,44.6,100,29.98,3.0,Variable,5.8,-,N/A,,Light Drizzle,0,2012-11-07 14:52:00
8:55 AM,43.9,43.9,100,29.98,3.0,Variable,4.6,-,0.00,,Drizzle,0,2012-11-07 14:55:00
8:58 AM,44.6,44.6,100,29.99,3.0,Variable,4.6,-,N/A,,Light Drizzle,0,2012-11-07 14:58:00
9:14 AM,44.6,44.6,100,29.99,2.5,Variable,3.5,-,N/A,Rain,Rain,0,2012-11-07 15:14:00
9:23 AM,44.6,44.6,100,29.99,3.0,Variable,5.8,-,N/A,Rain,Light Rain,0,2012-11-07 15:23:00
9:26 AM,44.6,44.6,100,29.99,2.5,Variable,4.6,-,N/A,Rain,Light Rain,0,2012-11-07 15:26:00
9:36 AM,44.6,44.6,100,30.00,3.0,Variable,3.5,-,N/A,Rain,Light Rain,0,2012-11-07 15:36:00
9:39 AM,44.6,44.6,100,30.00,2.5,Calm,Calm,-,N/A,Rain,Light Rain,0,2012-11-07 15:39:00
9:45 AM,44.6,44.6,100,30.00,3.0,Variable,4.6,-,N/A,Rain,Light Rain,0,2012-11-07 15:45:00
9:55 AM,44.1,44.1,100,30.00,3.0,NW,4.6,-,0.04,,Drizzle,310,2012-11-07 15:55:00
10:07 AM,44.6,44.6,100,30.01,5.0,Variable,4.6,-,N/A,,Light Drizzle,0,2012-11-07 16:07:00
10:14 AM,44.6,44.6,100,30.01,8.0,Calm,Calm,-,N/A,,Light Drizzle,0,2012-11-07 16:14:00
10:22 AM,44.6,44.6,100,30.01,8.0,Variable,3.5,-,N/A,,Light Drizzle,0,2012-11-07 16:22:00
10:31 AM,44.6,44.6,100,30.01,6.0,Calm,Calm,-,N/A,,Heavy Drizzle,0,2012-11-07 16:31:00
10:34 AM,44.6,44.6,100,30.01,6.0,Calm,Calm,-,N/A,,Heavy Drizzle,0,2012-11-07 16:34:00
10:40 AM,44.6,44.6,100,30.02,7.0,Variable,3.5,-,N/A,,Drizzle,0,2012-11-07 16:40:00
10:42 AM,44.6,44.6,100,30.01,7.0,Variable,4.6,-,N/A,,Drizzle,0,2012-11-07 16:42:00
10:55 AM,45.0,45.0,100,30.02,8.0,Variable,4.6,-,0.03,,Heavy Drizzle,0,2012-11-07 16:55:00
11:10 AM,44.6,44.6,100,30.01,9.0,Calm,Calm,-,N/A,,Drizzle,0,2012-11-07 17:10:00
11:13 AM,44.6,44.6,100,30.01,9.0,Variable,4.6,-,N/A,,Light Drizzle,0,2012-11-07 17:13:00
11:16 AM,44.6,44.6,100,30.01,10.0,Variable,4.6,-,N/A,,Light Drizzle,0,2012-11-07 17:16:00
11:41 AM,46.4,44.6,93,30.01,10.0,Variable,4.6,-,N/A,,Mostly Cloudy,0,2012-11-07 17:41:00
11:55 AM,46.0,44.6,95,30.01,10.0,Variable,3.5,-,0.00,,Overcast,0,2012-11-07 17:55:00
12:05 PM,46.4,44.6,93,30.01,10.0,Calm,Calm,-,N/A,,Overcast,0,2012-11-07 18:05:00
12:08 PM,46.4,44.6,93,30.01,10.0,Calm,Calm,-,N/A,,Overcast,0,2012-11-07 18:08:00
12:30 PM,46.4,44.6,93,30.01,10.0,Variable,4.6,-,N/A,,Overcast,0,2012-11-07 18:30:00
12:55 PM,46.9,44.1,90,30.01,10.0,Variable,3.5,-,N/A,,Overcast,0,2012-11-07 18:55:00
1:25 PM,46.4,42.8,87,30.01,10.0,Variable,6.9,-,N/A,,Overcast,0,2012-11-07 19:25:00
1:55 PM,46.2,43.3,90,30.03,10.0,Variable,4.6,-,N/A,,Overcast,0,2012-11-07 19:55:00
2:03 PM,46.4,44.6,93,30.02,10.0,Variable,6.9,-,N/A,,Overcast,0,2012-11-07 20:03:00
2:55 PM,48.0,43.2,83,30.04,10.0,Variable,4.6,-,N/A,,Overcast,0,2012-11-07 20:55:00
3:41 PM,48.2,41.0,76,30.06,10.0,NW,9.2,-,N/A,,Overcast,310,2012-11-07 21:41:00
3:47 PM,48.2,42.8,82,30.06,10.0,NW,8.1,-,N/A,,Overcast,310,2012-11-07 21:47:00
3:55 PM,47.5,42.4,83,30.06,10.0,NW,8.1,-,N/A,,Overcast,310,2012-11-07 21:55:00
4:55 PM,45.5,41.5,86,30.09,10.0,NW,5.8,-,N/A,,Mostly Cloudy,310,2012-11-07 22:55:00
5:55 PM,44.4,41.4,89,30.12,10.0,NW,6.9,-,N/A,,Overcast,310,2012-11-07 23:55:00
6:55 PM,44.6,41.5,89,30.13,10.0,NW,6.9,-,N/A,,Overcast,310,2012-11-08 00:55:00
7:55 PM,44.4,41.7,90,30.15,10.0,Calm,Calm,-,N/A,,Overcast,0,2012-11-08 01:55:00
8:55 PM,44.2,42.3,93,30.17,10.0,WNW,3.5,-,N/A,,Overcast,300,2012-11-08 02:55:00
9:55 PM,44.2,42.3,93,30.17,10.0,Calm,Calm,-,N/A,,Overcast,0,2012-11-08 03:55:00
10:55 PM,44.4,42.4,93,30.17,10.0,Calm,Calm,-,N/A,,Overcast,0,2012-11-08 04:55:00
11:55 PM,44.2,42.6,94,30.17,10.0,Calm,Calm,-,N/A,,Overcast,0,2012-11-08 05:55:00